Weather in Ust-Ilya

Russia / Zabaykalsky Krai     50°24′01″N   113°42′57″E
temp.,
°C
wind,
m/s
gust,
m/s
humid.,
%
clouds,
%
prec.,
mm/h
press.,
hPa
HPBL,
m
18 june, fri
fri1800:00+14nw112056100 0.1 9931940
03:00+11nw91770100 0.4 9931643
06:00+11nw101874100 0.2 9931724
09:00+10nw91679100 0.7 9931557
12:00+10nw81383100 0.8 9951016
15:00+14nw9127182 0.9 9951129
18:00+12nw6118121 1.0 997780
21:00+12nw5108089 1.8 997360
19 june, sat
sat1900:00+10nw339089 1.1 99961
03:00+9nnw359043 1.5 1000128
06:00+10nw41187100 0.1 1000480
09:00+13nw71271100 0.1 999790
12:00+18n91254100 0.1 9991833
15:00+14nne51075100 0.9 1001857
18:00+15n61368100 0.1 10011152
21:00+13n3575100 0.1 1002144
20 june, sun
sun2000:00+10nnw2392100 0.0 100558
03:00+9nw339488 0.1 100659
06:00+9nnw249318 0.0 1008118
09:00+14nne3573100 0.0 1008647
12:00+17ene556184 0.1 10081209
15:00+20ene334766 0.3 10071753
18:00+19ene1252100 0.0 1007482
21:00+17e116384 0.0 100913
21 june, mon
mon2100:00+13ne117962 0.0 101110
03:00+11n00835 0.0 101210
06:00+11w11841 0.0 101210
09:00+17se22635 0.0 1012422
12:00+21se33451 0.0 10101674
15:00+25se44354 0.0 10082291
18:00+25se553432 0.0 10072075
21:00+20ese23585 0.0 100848
22 june, tue
tue2200:00+15e22715 0.0 100911
03:00+13e1177100 0.0 100911
06:00+13sse1174100 0.0 100911
09:00+19sse2453100 0.0 1008384
12:00+26s4535100 0.0 10051420
15:00+28s443295 0.0 10031737
18:00+29se673179 0.0 10011697
21:00+18wsw4975100 0.7 1005277